Valle del Fuerte International Airport

Jump to: basic info | weather | frequencies | runways | comments

Related pages: nearby airports | nearby navaids | notams | map

Basic information (top)

Codes: LMM MMLM
Location: lon 25.685200, lat -109.081001, elev 16 ft / 5 m msl
Status: medium_airport
Scheduled airline service: yes
Links: Wikipedia Mobile

Weather (top)

Current conditions (rec'd 2014/09/01 19:42Z):

MMLM 011942Z 25011KT 10SM BKN020TCU 34/25 A2977 RMK 8/200 CI

Airport forecast (rec'd 2014/08/31 18:22Z):

TAF COR MMLM 311814Z 3118/0118 24010KT P6SM BKN025 BKN300 
     FM010300 22005KT P6SM BKN250 
     FM011600 24010KT P6SM BKN250

Frequencies (top)

Verify before use: may be inaccurate or out of date.

TWR: 118.8 MHz (MOCHIS TWR)

Runways (top)

09/27: 6,562 x 148 ft (2,000 x 45 m) — paved — lighted

Latest comments (top)

No comments yet for Valle del Fuerte International Airport

More... (top)

See also NOTAMs and nearby airports and navaids, or visit the Valle del Fuerte International Airport page at the main OurAirports website..